Location: Unspecified
(49.2170°N, 0.0000°E)
Time: 13:11:41
(UTC+00:00)

Transit 2A - Pass Details

Date: 19 June 2019
Orbit: 597 x 962 km, 66.7° (Epoch: 24 August)

Event Time Altitude Azimuth Distance (km) Brightness Sun altitude
Rises 03:51:55 0° 272° (W) 3,646 9.0 -1.1°
Reaches altitude 10° 03:55:13 10° 288° (WNW) 2,689 8.5 -0.7°
Maximum altitude 03:59:53 21° 335° (NNW) 1,975 8.3 -0.1°
Drops below altitude 10° 04:04:23 10° 23° (NNE) 2,591 9.9 0.5°
Sets 04:07:30 0° 40° (NE) 3,476 11.4 0.9°
